Weather in Tavrichanka

Russia / Omsk Oblast     55°27′26″N   72°46′04″E
temp.,
°C
wind,
m/s
gust,
m/s
humid.,
%
clouds,
%
prec.,
mm/h
press.,
hPa
HPBL,
m
25 may, wed
wed2500:00+18sse45475 0.0 101656
03:00+16sse46495 0.0 101773
06:00+16s23530 0.0 101725
09:00+23sse34395 0.0 1017315
12:00+27se343075 0.0 10171689
15:00+28ese4428100 0.0 10162751
18:00+27e453396 0.0 10152513
21:00+21e41055100 0.0 1015168
26 may, thu
thu2600:00+19ese475594 0.0 1015108
03:00+17se365344 0.0 101593
06:00+17ese366180 0.0 1015105
09:00+23se58470 0.0 1014522
12:00+27se79350 0.0 10132043
15:00+28se78300 0.0 10122594
18:00+28se68330 0.0 10102332
21:00+22ese613563 0.0 1010323
27 may, fri
fri2700:00+21ese81848100 0.0 1008562
03:00+20se81752100 0.0 1007630
06:00+19se71764100 0.3 1006598
09:00+22sse8135747 0.9 10051162
12:00+24ssw8104955 0.9 10051890
15:00+19sw896798 0.0 10071074
18:00+15wsw71080100 0.0 1009739
21:00+13w61180100 0.0 1011573
28 may, sat
sat2800:00+12w597699 0.0 1012625
03:00+10w488569 0.0 1013302
06:00+10wnw597714 0.0 1014466
09:00+14wnw710514 0.0 1014956
12:00+18wnw783921 0.0 10141596
15:00+19wnw773870 0.0 10141918
18:00+19nw67416 0.0 10142021
21:00+14n5968100 0.0 1015253
29 may, sun
sun2900:00+11wnw3473100 0.0 1015104
03:00+13w4965100 0.0 1015323
06:00+13w4872100 0.0 1014297
09:00+15nw5964100 0.0 1014838
12:00+13nw5880100 0.0 1014617
15:00+15nnw687271 0.2 10141007
18:00+14nnw577334 0.3 1014761
21:00+14nnw497784 0.0 1014548